ONEWEB-0061, 45428

Orbit data source: Space-Track

ONEWEB-0061, 45428 is a payload satellite owned by One Web (UK) in LEO that was launched on Sat, 21 Mar 2020 UTC via a SOYUZ-2-1B launch vehicle from the Tyuratam Missile And Space Complex (TTMTR). Payload-class satellites include a variety of spacecraft equipped with specific instruments for various scientific and technological missions. These include communications satellites like Starlink; space stations such as the ISS; scientific satellites like the Hubble; Earth observation satellites from companies like Planet Labs, Umbra, and HawkEye 360; GPS; miniature CubeSats for education and research; and military/defense satellites.

Loading next visibility...
Identifier
45428, 2020-020E
Orbit
LEO
Country
Flag of UKUK
Related business
Manufacturer
One Web
Mission
Operational Commercial Communications
Bus & Motor
ARROW, Unknown motor
Mass
148 kg wet, ~140 kg dry
Launch date (UTC)
2020-03-21 (6 years ago)
Launch vehicle
SOYUZ-2-1B
Launch site
Tyuratam Missile And Space Complex (TTMTR)
Object type
Payload
Rocket body
Debris
Shape & HBR
Trap Box + 2 Pan, 6.7 m
Radar Cross Section
3.464 m², Large (>1 m²)

Expand to show TLE details & history
Last TLE update: 20 hours ago

TLE from 20 hours ago
0 ONEWEB-0061
1 45428U 20020E   26254.30766243  .00000366  00000-0  99583-3 0  9999
2 45428  87.8966   3.9365 0001810 100.5255 259.6077 13.11414579313912
Epoch: 2026-09-11T07:23Z
TLE epoch observation values (Epoch: 2026-09-11T07:23:02.033Z)
Latitude
-0.00004°
Longitude
-97.15486°
Altitude
1,220.829 km
Speed
7.244 km/s
True Right ascension
00h 15m 44s
True Declination
0° 00' 00"
Sunlit
Object was in full shadow at epoch
Visualization orbit readout
Latitude
Unknown
Longitude
Unknown
Altitude
Unknown
Speed
Unknown
Apparent Right ascension
Unknown
Apparent Declination
Unknown
Sunlit
N/A
Visualization observer readout
Local Sidereal Time
20:06:13
Azimuth
Unknown
Elevation
Unknown
Doppler factor
Unknown
Orbital elements
Apogee altitude
1,216.184 km
Perigee altitude
1,213.436 km
Semi-major axis
7,592.947 km
Eccentricity
0.00018
Inclination
87.8966°
RAAN
3.9365°
Arg. of periapsis
100.5255°
True anomaly
259.5873°
Mean anomaly
259.6077°
Eccentric anomaly
259.5975°
Mean motion
3.28041 °/min
Orbital period
109.74 mins
BSTAR
0.00099583
Loading maneuver chart data...
Computing Atmospheric mass density...
Loading historical data...
Loading historical data...
Loading historical data...
Loading historical data...
Loading historical data...
Loading historical data...
Loading historical data...

Documentation

Showing up to 5 results
|